JBU1281 KBOS-KJFK

Flight info

Callsign JBU1281
Flight time N/A
Altitude 22000
Route SSOXS7 PARCH3
Aircraft A320/M-SDE3FGHIRWY/LB1

Departure

Time 2026-05-04 19:50
Airport Boston Logan International Airport (KBOS)

Arrival

Time N/A
Airport John F. Kennedy International Airport (KJFK)
Time Latitude Longitude Altitude Speed Heading
2026-05-04 18:53 42.36575 -71.01394 23 ft 0 kts 305°
2026-05-04 19:32 42.36571 -71.01387 23 ft 2 kts 303°
2026-05-04 19:32 42.36562 -71.01368 25 ft 2 kts 304°
2026-05-04 19:33 42.36553 -71.01350 26 ft 2 kts 305°
2026-05-04 19:33 42.36543 -71.01332 25 ft 2 kts 323°
2026-05-04 19:33 42.36528 -71.01327 25 ft 2 kts 24°
2026-05-04 19:33 42.36519 -71.01332 25 ft 1 kts 25°
2026-05-04 19:34 42.36518 -71.01332 25 ft 0 kts 26°
2026-05-04 19:44 42.36528 -71.01326 25 ft 4 kts 25°
2026-05-04 19:44 42.36569 -71.01301 24 ft 9 kts 23°
2026-05-04 19:44 42.36633 -71.01271 25 ft 11 kts 16°
2026-05-04 19:45 42.36720 -71.01241 27 ft 14 kts
2026-05-04 19:45 42.36808 -71.01280 24 ft 11 kts 335°
2026-05-04 19:45 42.36878 -71.01232 24 ft 15 kts 42°
2026-05-04 19:45 42.37017 -71.01089 23 ft 27 kts 28°
2026-05-04 19:46 42.37169 -71.00990 21 ft 22 kts 26°
2026-05-04 19:46 42.37254 -71.00934 21 ft 6 kts 26°
2026-05-04 19:46 42.37266 -71.00927 21 ft 6 kts 26°
2026-05-04 19:46 42.37388 -71.00862 20 ft 24 kts 20°
2026-05-04 19:47 42.37521 -71.00797 23 ft 18 kts 19°
2026-05-04 19:47 42.37650 -71.00735 28 ft 20 kts 19°
2026-05-04 19:47 42.37771 -71.00676 28 ft 16 kts 20°
2026-05-04 19:47 42.37838 -71.00606 27 ft 11 kts 78°
2026-05-04 19:48 42.37809 -71.00495 27 ft 14 kts 136°
2026-05-04 19:48 42.37757 -71.00490 26 ft 0 kts 198°
2026-05-04 19:48 42.37756 -71.00490 26 ft 0 kts 199°
2026-05-04 19:49 42.37756 -71.00491 26 ft 0 kts 199°
2026-05-04 19:50 42.37739 -71.00498 25 ft 13 kts 199°
2026-05-04 19:50 42.37376 -71.00674 24 ft 95 kts 200°
2026-05-04 19:50 42.36575 -71.01080 228 ft 136 kts 205°
2026-05-04 19:50 42.35691 -71.01552 1001 ft 138 kts 210°
2026-05-04 19:51 42.34692 -71.01766 1717 ft 162 kts 182°
2026-05-04 19:51 42.33559 -71.01044 2260 ft 204 kts 142°
2026-05-04 19:51 42.32575 -70.99479 2782 ft 230 kts 134°
2026-05-04 19:51 42.31646 -70.97671 3721 ft 240 kts 120°
2026-05-04 19:52 42.31236 -70.95417 4603 ft 263 kts 94°
2026-05-04 19:52 42.31491 -70.92810 4911 ft 292 kts 79°
2026-05-04 19:52 42.31902 -70.90093 4998 ft 298 kts 79°
2026-05-04 19:52 42.32318 -70.87336 5178 ft 303 kts 79°
2026-05-04 19:53 42.32736 -70.84511 6316 ft 305 kts 78°
2026-05-04 19:53 42.32969 -70.81650 7474 ft 309 kts 90°
2026-05-04 19:53 42.32709 -70.78755 8611 ft 314 kts 104°
2026-05-04 19:53 42.31954 -70.75969 9719 ft 317 kts 116°
2026-05-04 19:54 42.30983 -70.73253 10503 ft 331 kts 120°
2026-05-04 19:54 42.29616 -70.70624 10919 ft 353 kts 134°
2026-05-04 19:54 42.27762 -70.68387 11565 ft 361 kts 148°
2026-05-04 19:54 42.25578 -70.66735 12442 ft 361 kts 161°
2026-05-04 19:55 42.23211 -70.65593 13388 ft 362 kts 165°
2026-05-04 19:55 42.20807 -70.64494 14242 ft 366 kts 165°
2026-05-04 19:55 42.18382 -70.63389 15018 ft 371 kts 165°
2026-05-04 19:55 42.15872 -70.62543 15777 ft 371 kts 175°
2026-05-04 19:56 42.13300 -70.62337 16522 ft 371 kts 187°
2026-05-04 19:56 42.10749 -70.62803 17282 ft 370 kts 198°
2026-05-04 19:56 42.08287 -70.63833 18056 ft 372 kts 203°
2026-05-04 19:56 42.05815 -70.64941 18766 ft 377 kts 203°
2026-05-04 19:57 42.03305 -70.66053 19470 ft 382 kts 203°
2026-05-04 19:57 42.00764 -70.67171 20186 ft 387 kts 203°
2026-05-04 19:57 41.98184 -70.68301 20909 ft 392 kts 203°
2026-05-04 19:57 41.95536 -70.69456 21577 ft 397 kts 203°
2026-05-04 19:58 41.92934 -70.70590 21822 ft 400 kts 203°
2026-05-04 19:58 41.90251 -70.71763 21889 ft 414 kts 203°
2026-05-04 19:58 41.87478 -70.72976 21885 ft 421 kts 202°
2026-05-04 19:58 41.84663 -70.74238 21882 ft 421 kts 205°
2026-05-04 19:59 41.82046 -70.75856 21889 ft 417 kts 213°
2026-05-04 19:59 41.79491 -70.77783 21885 ft 417 kts 214°
2026-05-04 19:59 41.76963 -70.79687 21890 ft 417 kts 214°
2026-05-04 19:59 41.74434 -70.81587 21921 ft 417 kts 214°
2026-05-04 20:00 41.71902 -70.83485 21921 ft 416 kts 214°
2026-05-04 20:00 41.70235 -70.84734 21924 ft 416 kts 214°
2026-05-04 20:00 41.66849 -70.87268 21918 ft 416 kts 214°
2026-05-04 20:00 41.65174 -70.88522 21918 ft 416 kts 214°
2026-05-04 20:01 41.62644 -70.90416 21919 ft 416 kts 214°
2026-05-04 20:01 41.60121 -70.92297 21917 ft 416 kts 214°
2026-05-04 20:01 41.57597 -70.94178 21914 ft 415 kts 214°
2026-05-04 20:01 41.55208 -70.96307 21913 ft 410 kts 223°
2026-05-04 20:02 41.53126 -70.98872 21911 ft 405 kts 232°
2026-05-04 20:02 41.51338 -71.01751 21905 ft 403 kts 235°
2026-05-04 20:02 41.49576 -71.04653 21908 ft 403 kts 235°
2026-05-04 20:02 41.47802 -71.07551 21909 ft 403 kts 235°
2026-05-04 20:03 41.46024 -71.10436 21911 ft 403 kts 235°
2026-05-04 20:03 41.44250 -71.13299 21918 ft 392 kts 234°
2026-05-04 20:03 41.42551 -71.16024 21918 ft 373 kts 235°
2026-05-04 20:03 41.40933 -71.18625 21920 ft 359 kts 235°
2026-05-04 20:04 41.39355 -71.21181 21924 ft 357 kts 235°
2026-05-04 20:04 41.37781 -71.23741 21924 ft 356 kts 236°
2026-05-04 20:04 41.36211 -71.26292 21929 ft 357 kts 235°
2026-05-04 20:04 41.34635 -71.28849 21925 ft 357 kts 235°
2026-05-04 20:05 41.33066 -71.31393 21954 ft 357 kts 235°
2026-05-04 20:05 41.31488 -71.33947 21952 ft 357 kts 235°
2026-05-04 20:05 41.31150 -71.34495 21955 ft 357 kts 235°
2026-05-04 20:06 41.29825 -71.36633 21959 ft 357 kts 235°
2026-05-04 20:06 41.28243 -71.39177 21965 ft 357 kts 235°
2026-05-04 20:06 41.26851 -71.41413 21961 ft 358 kts 235°
2026-05-04 20:07 41.25299 -71.43907 21973 ft 363 kts 235°
2026-05-04 20:07 41.23640 -71.46583 21955 ft 387 kts 235°
2026-05-04 20:07 41.21888 -71.49405 21969 ft 400 kts 235°
2026-05-04 20:08 41.21582 -71.49896 21952 ft 401 kts 234°
2026-05-04 20:08 41.21375 -71.50228 21954 ft 402 kts 234°
2026-05-04 20:08 41.20537 -71.51582 21968 ft 403 kts 235°
2026-05-04 20:09 41.18794 -71.54495 21962 ft 402 kts 239°
2026-05-04 20:09 41.17389 -71.57668 21959 ft 397 kts 248°
2026-05-04 20:09 41.16417 -71.61078 21968 ft 394 kts 257°
2026-05-04 20:09 41.15868 -71.64619 21964 ft 391 kts 264°
2026-05-04 20:10 41.15431 -71.68182 21955 ft 392 kts 263°
2026-05-04 20:10 41.14984 -71.71827 21954 ft 409 kts 263°
2026-05-04 20:10 41.14521 -71.75611 21954 ft 423 kts 263°
2026-05-04 20:10 41.14040 -71.79508 21962 ft 431 kts 263°
2026-05-04 20:11 41.13549 -71.83448 21955 ft 433 kts 263°
2026-05-04 20:11 41.13055 -71.87391 21955 ft 434 kts 263°
2026-05-04 20:11 41.12556 -71.91329 21953 ft 426 kts 263°
2026-05-04 20:11 41.12074 -71.95068 21954 ft 400 kts 263°
2026-05-04 20:12 41.11608 -71.98680 21965 ft 394 kts 263°
2026-05-04 20:12 41.11153 -72.02255 21965 ft 393 kts 263°
2026-05-04 20:12 41.10703 -72.05824 21967 ft 392 kts 263°
2026-05-04 20:12 41.10252 -72.09391 21956 ft 392 kts 263°
2026-05-04 20:13 41.09710 -72.12920 21838 ft 387 kts 257°
2026-05-04 20:13 41.08900 -72.16254 21572 ft 376 kts 255°
2026-05-04 20:13 41.08080 -72.19525 21312 ft 372 kts 255°
2026-05-04 20:13 41.07271 -72.22764 21020 ft 368 kts 255°
2026-05-04 20:14 41.06472 -72.25969 20508 ft 364 kts 255°
2026-05-04 20:14 41.05683 -72.29137 19944 ft 361 kts 255°
2026-05-04 20:14 41.04904 -72.32275 19389 ft 357 kts 255°
2026-05-04 20:14 41.04131 -72.35393 18816 ft 355 kts 255°
2026-05-04 20:15 41.03364 -72.38486 18233 ft 352 kts 254°
2026-05-04 20:15 41.02602 -72.41553 17593 ft 349 kts 254°
2026-05-04 20:15 41.01848 -72.44574 17033 ft 343 kts 254°
2026-05-04 20:15 41.01103 -72.47553 16438 ft 339 kts 254°
2026-05-04 20:16 41.00363 -72.50507 15860 ft 335 kts 253°
2026-05-04 20:16 40.99634 -72.53419 15279 ft 332 kts 253°
2026-05-04 20:16 40.98906 -72.56311 14685 ft 330 kts 253°
2026-05-04 20:16 40.98185 -72.59176 14100 ft 327 kts 253°
2026-05-04 20:17 40.97467 -72.62032 13486 ft 325 kts 253°
2026-05-04 20:17 40.96758 -72.64851 12879 ft 322 kts 253°
2026-05-04 20:17 40.96054 -72.67638 12470 ft 314 kts 253°
2026-05-04 20:17 40.95374 -72.70310 12338 ft 299 kts 253°
2026-05-04 20:18 40.94732 -72.72831 12099 ft 284 kts 253°
2026-05-04 20:18 40.94113 -72.75266 11999 ft 275 kts 253°
2026-05-04 20:18 40.93489 -72.77654 11990 ft 275 kts 250°
2026-05-04 20:18 40.92525 -72.79853 11996 ft 279 kts 235°